Time,TemperatureF,DewpointF,PressureIn,WindDirection,WindDirectionDegrees,WindSpeedMPH,WindSpeedGustMPH,Humidity,HourlyPrecipIn,Conditions,Clouds,dailyrainin,SoftwareType,DateUTC
2013-03-16 00:00:00,58.7,53.6,30.07,SW,218,4.0,5.0,83,0.00,,---,0.00,VWS V14.01,2013-03-16 05:00:00,
2013-03-16 00:05:00,58.8,53.7,30.07,SW,219,3.0,9.0,83,0.00,,---,0.00,VWS V14.01,2013-03-16 05:05:00,
2013-03-16 00:10:00,58.9,53.8,30.07,SW,227,1.0,9.0,83,0.00,,---,0.00,VWS V14.01,2013-03-16 05:10:00,
2013-03-16 00:15:00,59.0,53.8,30.07,SW,227,2.0,9.0,83,0.00,,---,0.00,VWS V14.01,2013-03-16 05:15:00,
2013-03-16 00:20:00,59.1,53.6,30.06,SW,214,0.0,9.0,82,0.00,,---,0.00,VWS V14.01,2013-03-16 05:20:00,
2013-03-16 00:25:00,59.1,53.6,30.06,SW,235,2.0,9.0,82,0.00,,---,0.00,VWS V14.01,2013-03-16 05:25:00,
2013-03-16 00:30:00,59.1,54.0,30.06,South,181,3.0,7.0,83,0.00,,---,0.00,VWS V14.01,2013-03-16 05:30:00,
2013-03-16 00:35:00,59.1,53.6,30.06,SW,232,3.0,10.0,82,0.00,,---,0.00,VWS V14.01,2013-03-16 05:35:00,
2013-03-16 00:40:00,59.1,53.6,30.06,WSW,240,0.0,10.0,82,0.00,,---,0.00,VWS V14.01,2013-03-16 05:40:00,
2013-03-16 00:45:00,59.1,53.6,30.06,WSW,248,3.0,10.0,82,0.00,,---,0.00,VWS V14.01,2013-03-16 05:45:00,
2013-03-16 00:50:00,59.1,53.6,30.06,SW,236,4.0,10.0,82,0.00,,---,0.00,VWS V14.01,2013-03-16 05:50:00,
2013-03-16 00:55:00,59.0,53.5,30.06,SSW,200,5.0,10.0,82,0.00,,---,0.00,VWS V14.01,2013-03-16 05:55:00,
2013-03-16 01:00:00,59.0,53.5,30.06,West,259,1.0,4.0,82,0.00,,---,0.00,VWS V14.01,2013-03-16 06:00:00,
2013-03-16 01:05:00,59.0,53.2,30.05,West,265,4.0,9.0,81,0.00,,---,0.00,VWS V14.01,2013-03-16 06:05:00,
2013-03-16 01:10:00,59.1,53.3,30.05,SW,233,1.0,9.0,81,0.00,,---,0.00,VWS V14.01,2013-03-16 06:10:00,
2013-03-16 01:15:00,59.0,53.2,30.05,SW,221,1.0,9.0,81,0.00,,---,0.00,VWS V14.01,2013-03-16 06:15:00,
2013-03-16 01:20:00,58.9,53.1,30.05,WSW,240,0.0,9.0,81,0.00,,---,0.00,VWS V14.01,2013-03-16 06:20:00,
2013-03-16 01:25:00,58.8,53.0,30.05,WSW,247,0.0,9.0,81,0.00,,---,0.00,VWS V14.01,2013-03-16 06:25:00,
2013-03-16 01:30:00,58.6,52.8,30.05,SW,220,5.0,5.0,81,0.00,,---,0.00,VWS V14.01,2013-03-16 06:30:00,
2013-03-16 01:35:00,58.5,52.7,30.05,WSW,240,0.0,6.0,81,0.00,,---,0.00,VWS V14.01,2013-03-16 06:35:00,
2013-03-16 01:40:00,58.5,52.7,30.05,WSW,239,3.0,7.0,81,0.00,,---,0.00,VWS V14.01,2013-03-16 06:40:00,
2013-03-16 01:45:00,58.6,52.5,30.04,SW,229,0.0,7.0,80,0.00,,---,0.00,VWS V14.01,2013-03-16 06:45:00,
2013-03-16 01:50:00,58.6,52.5,30.04,SW,225,1.0,7.0,80,0.00,,---,0.00,VWS V14.01,2013-03-16 06:50:00,
2013-03-16 01:55:00,58.6,52.1,30.04,West,263,0.0,9.0,79,0.00,,---,0.00,VWS V14.01,2013-03-16 06:55:00,
2013-03-16 02:00:00,58.5,52.0,30.04,SW,236,3.0,3.0,79,0.00,,---,0.00,VWS V14.01,2013-03-16 07:00:00,
2013-03-16 02:05:00,58.4,51.9,30.03,WSW,257,0.0,6.0,79,0.00,,---,0.00,VWS V14.01,2013-03-16 07:05:00,
2013-03-16 02:10:00,58.3,51.8,30.03,West,267,0.0,6.0,79,0.00,,---,0.00,VWS V14.01,2013-03-16 07:10:00,
2013-03-16 02:15:00,58.2,52.1,30.03,SW,225,0.0,6.0,80,0.00,,---,0.00,VWS V14.01,2013-03-16 07:15:00,
2013-03-16 02:20:00,58.2,52.1,30.03,WSW,246,2.0,9.0,80,0.00,,---,0.00,VWS V14.01,2013-03-16 07:20:00,
2013-03-16 02:25:00,58.1,52.0,30.03,SW,236,0.0,9.0,80,0.00,,---,0.00,VWS V14.01,2013-03-16 07:25:00,
2013-03-16 02:30:00,58.1,52.0,30.02,SW,216,0.0,6.0,80,0.00,,---,0.00,VWS V14.01,2013-03-16 07:30:00,
2013-03-16 02:35:00,58.0,51.9,30.02,SW,236,2.0,6.0,80,0.00,,---,0.00,VWS V14.01,2013-03-16 07:35:00,
2013-03-16 02:40:00,58.1,52.0,30.02,WSW,243,0.0,6.0,80,0.00,,---,0.00,VWS V14.01,2013-03-16 07:40:00,
2013-03-16 02:45:00,58.0,51.9,30.02,WSW,249,1.0,6.0,80,0.00,,---,0.00,VWS V14.01,2013-03-16 07:45:00,
2013-03-16 02:50:00,57.9,52.1,30.02,WSW,244,2.0,6.0,81,0.00,,---,0.00,VWS V14.01,2013-03-16 07:50:00,
2013-03-16 02:55:00,57.8,52.0,30.02,WSW,244,0.0,6.0,81,0.00,,---,0.00,VWS V14.01,2013-03-16 07:55:00,
2013-03-16 03:00:00,57.7,51.9,30.02,WSW,248,0.0,0.0,81,0.00,,---,0.00,VWS V14.01,2013-03-16 08:00:00,
2013-03-16 03:05:00,57.5,52.1,30.02,WSW,248,0.0,3.0,82,0.00,,---,0.00,VWS V14.01,2013-03-16 08:05:00,
2013-03-16 03:10:00,57.3,51.9,30.02,WSW,247,0.0,3.0,82,0.00,,---,0.00,VWS V14.01,2013-03-16 08:10:00,
2013-03-16 03:15:00,57.0,51.6,30.02,WSW,246,0.0,3.0,82,0.00,,---,0.00,VWS V14.01,2013-03-16 08:15:00,
2013-03-16 03:20:00,56.7,51.6,30.01,WSW,246,0.0,3.0,83,0.00,,---,0.00,VWS V14.01,2013-03-16 08:20:00,
2013-03-16 03:25:00,56.3,51.2,30.01,WSW,248,0.0,3.0,83,0.00,,---,0.00,VWS V14.01,2013-03-16 08:25:00,
2013-03-16 03:30:00,56.0,51.2,30.01,WSW,248,1.0,1.0,84,0.00,,---,0.00,VWS V14.01,2013-03-16 08:30:00,
2013-03-16 03:35:00,55.7,51.0,30.01,WSW,250,0.0,2.0,84,0.00,,---,0.00,VWS V14.01,2013-03-16 08:35:00,
2013-03-16 03:40:00,55.4,51.0,30.01,WSW,250,0.0,2.0,85,0.00,,---,0.00,VWS V14.01,2013-03-16 08:40:00,
2013-03-16 03:45:00,55.2,50.8,30.01,WSW,250,0.0,2.0,85,0.00,,---,0.00,VWS V14.01,2013-03-16 08:45:00,
2013-03-16 03:50:00,55.0,50.9,30.01,WSW,250,0.0,2.0,86,0.00,,---,0.00,VWS V14.01,2013-03-16 08:50:00,
2013-03-16 03:55:00,54.8,50.7,30.00,WSW,250,0.0,2.0,86,0.00,,---,0.00,VWS V14.01,2013-03-16 08:55:00,
2013-03-16 04:00:00,54.6,50.8,30.00,WSW,247,0.0,1.0,87,0.00,,---,0.00,VWS V14.01,2013-03-16 09:00:00,
2013-03-16 04:05:00,54.4,50.3,30.00,WSW,247,0.0,1.0,86,0.00,,---,0.00,VWS V14.01,2013-03-16 09:05:00,
2013-03-16 04:10:00,54.1,50.3,30.00,WSW,247,2.0,2.0,87,0.00,,---,0.00,VWS V14.01,2013-03-16 09:10:00,
2013-03-16 04:15:00,53.7,49.9,29.99,WSW,247,0.0,2.0,87,0.00,,---,0.00,VWS V14.01,2013-03-16 09:15:00,
2013-03-16 04:20:00,53.3,49.5,29.99,WSW,247,0.0,2.0,87,0.00,,---,0.00,VWS V14.01,2013-03-16 09:20:00,
2013-03-16 04:25:00,52.9,49.5,29.99,WSW,247,1.0,2.0,88,0.00,,---,0.00,VWS V14.01,2013-03-16 09:25:00,
2013-03-16 04:30:00,52.6,49.5,30.00,WSW,247,0.0,3.0,89,0.00,,---,0.00,VWS V14.01,2013-03-16 09:30:00,
2013-03-16 04:35:00,52.6,49.5,29.99,WSW,248,0.0,3.0,89,0.00,,---,0.00,VWS V14.01,2013-03-16 09:35:00,
2013-03-16 04:40:00,52.6,49.8,29.99,WSW,248,0.0,3.0,90,0.00,,---,0.00,VWS V14.01,2013-03-16 09:40:00,
2013-03-16 04:45:00,52.7,49.8,30.00,WSW,248,0.0,3.0,90,0.00,,---,0.00,VWS V14.01,2013-03-16 09:45:00,
2013-03-16 04:50:00,53.0,50.5,29.99,WSW,248,0.0,3.0,91,0.00,,---,0.00,VWS V14.01,2013-03-16 09:50:00,
2013-03-16 04:55:00,53.1,50.5,29.99,WSW,248,0.0,3.0,91,0.00,,---,0.00,VWS V14.01,2013-03-16 09:55:00,
2013-03-16 05:00:00,53.2,50.7,30.00,WSW,248,0.0,0.0,91,0.00,,---,0.00,VWS V14.01,2013-03-16 10:00:00,
2013-03-16 05:05:00,53.0,50.5,29.99,WSW,248,0.0,0.0,91,0.00,,---,0.00,VWS V14.01,2013-03-16 10:05:00,
2013-03-16 05:10:00,52.8,50.2,30.00,WSW,248,0.0,0.0,91,0.00,,---,0.00,VWS V14.01,2013-03-16 10:10:00,
2013-03-16 05:15:00,52.7,50.2,30.00,WSW,248,0.0,1.0,91,0.00,,---,0.00,VWS V14.01,2013-03-16 10:15:00,
2013-03-16 05:20:00,52.8,50.5,30.00,WSW,248,0.0,2.0,92,0.00,,---,0.00,VWS V14.01,2013-03-16 10:20:00,
2013-03-16 05:25:00,52.7,50.2,30.00,WSW,248,0.0,2.0,91,0.00,,---,0.00,VWS V14.01,2013-03-16 10:25:00,
2013-03-16 05:30:00,52.7,50.5,30.01,WSW,248,0.0,0.0,92,0.00,,---,0.00,VWS V14.01,2013-03-16 10:30:00,
2013-03-16 05:35:00,52.6,50.3,30.01,WSW,248,0.0,0.0,92,0.00,,---,0.00,VWS V14.01,2013-03-16 10:35:00,
2013-03-16 05:40:00,52.5,50.0,30.01,WSW,248,0.0,0.0,91,0.00,,---,0.00,VWS V14.01,2013-03-16 10:40:00,
2013-03-16 05:45:00,52.3,50.0,30.01,WSW,248,0.0,0.0,92,0.00,,---,0.00,VWS V14.01,2013-03-16 10:45:00,
2013-03-16 05:50:00,52.2,50.0,30.01,WSW,248,0.0,0.0,92,0.00,,---,0.00,VWS V14.01,2013-03-16 10:50:00,
2013-03-16 05:55:00,52.1,49.8,30.01,WSW,248,0.0,0.0,92,0.00,,---,0.00,VWS V14.01,2013-03-16 10:55:00,
2013-03-16 06:00:00,51.9,49.7,30.02,WSW,248,0.0,0.0,92,0.00,,---,0.00,VWS V14.01,2013-03-16 11:00:00,
2013-03-16 06:05:00,51.7,49.5,30.02,WSW,248,0.0,0.0,92,0.00,,---,0.00,VWS V14.01,2013-03-16 11:05:00,
2013-03-16 06:10:00,51.7,49.8,30.02,WSW,248,0.0,0.0,93,0.00,,---,0.00,VWS V14.01,2013-03-16 11:10:00,
2013-03-16 06:15:00,51.7,49.5,30.02,WSW,248,0.0,0.0,92,0.00,,---,0.00,VWS V14.01,2013-03-16 11:15:00,
2013-03-16 06:20:00,51.7,49.8,30.02,WSW,248,0.0,0.0,93,0.00,,---,0.00,VWS V14.01,2013-03-16 11:20:00,
2013-03-16 06:25:00,51.6,49.7,30.02,WSW,248,0.0,0.0,93,0.00,,---,0.00,VWS V14.01,2013-03-16 11:25:00,
2013-03-16 06:30:00,51.2,49.0,30.02,WSW,248,0.0,0.0,92,0.00,,---,0.00,VWS V14.01,2013-03-16 11:30:00,
2013-03-16 06:35:00,50.8,48.6,30.02,WSW,248,0.0,0.0,92,0.00,,---,0.00,VWS V14.01,2013-03-16 11:35:00,
2013-03-16 06:40:00,50.6,48.4,30.02,WSW,248,0.0,0.0,92,0.00,,---,0.00,VWS V14.01,2013-03-16 11:40:00,
2013-03-16 06:45:00,50.4,48.2,30.02,WSW,248,0.0,0.0,92,0.00,,---,0.00,VWS V14.01,2013-03-16 11:45:00,
2013-03-16 06:50:00,50.1,47.9,30.02,WSW,248,0.0,0.0,92,0.00,,---,0.00,VWS V14.01,2013-03-16 11:50:00,
2013-03-16 06:55:00,49.7,47.5,30.02,WSW,248,0.0,0.0,92,0.00,,---,0.00,VWS V14.01,2013-03-16 11:55:00,
2013-03-16 07:00:00,49.3,47.1,30.02,WSW,248,0.0,0.0,92,0.00,,---,0.00,VWS V14.01,2013-03-16 12:00:00,
2013-03-16 07:05:00,49.0,46.8,30.02,WSW,248,0.0,0.0,92,0.00,,---,0.00,VWS V14.01,2013-03-16 12:05:00,
2013-03-16 07:10:00,48.6,46.4,30.02,WSW,248,0.0,0.0,92,0.00,,---,0.00,VWS V14.01,2013-03-16 12:10:00,
2013-03-16 07:15:00,48.3,46.1,30.02,WSW,248,0.0,0.0,92,0.00,,---,0.00,VWS V14.01,2013-03-16 12:15:00,
2013-03-16 07:20:00,48.0,45.8,30.02,WSW,248,0.0,0.0,92,0.00,,---,0.00,VWS V14.01,2013-03-16 12:20:00,
2013-03-16 07:25:00,47.8,45.6,30.02,WSW,248,0.0,0.0,92,0.00,,---,0.00,VWS V14.01,2013-03-16 12:25:00,
2013-03-16 07:30:00,47.7,45.5,30.02,WSW,248,0.0,0.0,92,0.00,,---,0.00,VWS V14.01,2013-03-16 12:30:00,
2013-03-16 07:35:00,47.7,45.8,30.02,WSW,248,0.0,0.0,93,0.00,,---,0.00,VWS V14.01,2013-03-16 12:35:00,
2013-03-16 07:40:00,47.9,46.0,30.03,WSW,248,0.0,0.0,93,0.00,,---,0.00,VWS V14.01,2013-03-16 12:40:00,
2013-03-16 07:45:00,48.8,47.2,30.03,WSW,248,0.0,0.0,94,0.00,,---,0.00,VWS V14.01,2013-03-16 12:45:00,
2013-03-16 07:50:00,49.8,48.4,30.03,WSW,248,0.0,0.0,95,0.00,,---,0.00,VWS V14.01,2013-03-16 12:50:00,
2013-03-16 07:55:00,50.8,49.4,30.03,WSW,248,0.0,0.0,95,0.00,,---,0.00,VWS V14.01,2013-03-16 12:55:00,
2013-03-16 08:00:00,51.4,50.0,30.03,WSW,248,0.0,0.0,95,0.00,,---,0.00,VWS V14.01,2013-03-16 13:00:00,
2013-03-16 08:05:00,51.7,50.3,30.03,WSW,248,0.0,0.0,95,0.00,,---,0.00,VWS V14.01,2013-03-16 13:05:00,
2013-03-16 08:10:00,52.4,51.0,30.03,WSW,248,0.0,0.0,95,0.00,,---,0.00,VWS V14.01,2013-03-16 13:10:00,
2013-03-16 08:15:00,53.2,51.8,30.03,WSW,248,0.0,0.0,95,0.00,,---,0.00,VWS V14.01,2013-03-16 13:15:00,
2013-03-16 08:20:00,54.3,52.9,30.03,WSW,248,0.0,2.0,95,0.00,,---,0.00,VWS V14.01,2013-03-16 13:20:00,
2013-03-16 08:25:00,55.6,54.2,30.03,WSW,240,0.0,2.0,95,0.00,,---,0.00,VWS V14.01,2013-03-16 13:25:00,
2013-03-16 08:30:00,56.8,55.4,30.04,WSW,240,3.0,3.0,95,0.00,,---,0.00,VWS V14.01,2013-03-16 13:30:00,
2013-03-16 08:35:00,58.0,56.6,30.03,SW,236,0.0,4.0,95,0.00,,---,0.00,VWS V14.01,2013-03-16 13:35:00,
2013-03-16 08:40:00,59.0,57.3,30.03,SW,230,0.0,5.0,94,0.00,,---,0.00,VWS V14.01,2013-03-16 13:40:00,
2013-03-16 08:45:00,60.0,57.7,30.03,SSW,208,3.0,6.0,92,0.00,,---,0.00,VWS V14.01,2013-03-16 13:45:00,
2013-03-16 08:50:00,60.9,58.0,30.03,WSW,251,0.0,6.0,90,0.00,,---,0.00,VWS V14.01,2013-03-16 13:50:00,
2013-03-16 08:55:00,61.8,57.9,30.04,WSW,246,0.0,6.0,87,0.00,,---,0.00,VWS V14.01,2013-03-16 13:55:00,
2013-03-16 09:00:00,62.7,58.1,30.04,SW,232,2.0,4.0,85,0.00,,---,0.00,VWS V14.01,2013-03-16 14:00:00,
2013-03-16 09:05:00,63.4,58.2,30.04,SW,229,3.0,9.0,83,0.00,,---,0.00,VWS V14.01,2013-03-16 14:05:00,
2013-03-16 09:10:00,64.1,58.5,30.04,SW,217,7.0,9.0,82,0.00,,---,0.00,VWS V14.01,2013-03-16 14:10:00,
2013-03-16 09:15:00,64.6,58.3,30.04,West,259,5.0,11.0,80,0.00,,---,0.00,VWS V14.01,2013-03-16 14:15:00,
2013-03-16 09:20:00,65.0,58.3,30.04,SW,229,3.0,11.0,79,0.00,,---,0.00,VWS V14.01,2013-03-16 14:20:00,
2013-03-16 09:25:00,65.5,58.5,30.05,West,261,0.0,11.0,78,0.00,,---,0.00,VWS V14.01,2013-03-16 14:25:00,
2013-03-16 09:30:00,66.1,58.3,30.04,SW,221,0.0,9.0,76,0.00,,---,0.00,VWS V14.01,2013-03-16 14:30:00,
2013-03-16 09:35:00,66.9,58.7,30.04,SW,232,1.0,9.0,75,0.00,,---,0.00,VWS V14.01,2013-03-16 14:35:00,
2013-03-16 09:40:00,67.3,58.0,30.04,SSW,198,12.0,15.0,72,0.00,,---,0.00,VWS V14.01,2013-03-16 14:40:00,
2013-03-16 09:45:00,67.6,58.3,30.04,WNW,283,0.0,15.0,72,0.00,,---,0.00,VWS V14.01,2013-03-16 14:45:00,
2013-03-16 09:50:00,68.2,57.7,30.04,SSW,209,3.0,15.0,69,0.00,,---,0.00,VWS V14.01,2013-03-16 14:50:00,
2013-03-16 09:55:00,68.4,57.8,30.04,West,277,10.0,16.0,69,0.00,,---,0.00,VWS V14.01,2013-03-16 14:55:00,
2013-03-16 10:00:00,68.6,57.2,30.03,SSW,212,2.0,7.0,67,0.00,,---,0.00,VWS V14.01,2013-03-16 15:00:00,
2013-03-16 10:05:00,68.9,57.1,30.03,SW,223,5.0,27.0,66,0.00,,---,0.00,VWS V14.01,2013-03-16 15:05:00,
2013-03-16 10:10:00,69.0,56.8,30.03,WSW,254,6.0,27.0,65,0.00,,---,0.00,VWS V14.01,2013-03-16 15:10:00,
2013-03-16 10:15:00,69.0,56.3,30.03,WSW,251,6.0,27.0,64,0.00,,---,0.00,VWS V14.01,2013-03-16 15:15:00,
2013-03-16 10:20:00,69.3,57.0,30.03,WSW,251,10.0,27.0,65,0.00,,---,0.00,VWS V14.01,2013-03-16 15:20:00,
2013-03-16 10:25:00,69.7,57.0,30.04,West,276,11.0,27.0,64,0.00,,---,0.00,VWS V14.01,2013-03-16 15:25:00,
2013-03-16 10:30:00,69.9,56.8,30.04,WSW,237,11.0,18.0,63,0.00,,---,0.00,VWS V14.01,2013-03-16 15:30:00,
2013-03-16 10:35:00,70.0,56.8,30.03,SW,235,3.0,18.0,63,0.00,,---,0.00,VWS V14.01,2013-03-16 15:35:00,
2013-03-16 10:40:00,70.6,57.0,30.03,WSW,256,3.0,18.0,62,0.00,,---,0.00,VWS V14.01,2013-03-16 15:40:00,
2013-03-16 10:45:00,70.8,55.8,30.03,SSW,209,2.0,18.0,59,0.00,,---,0.00,VWS V14.01,2013-03-16 15:45:00,
2013-03-16 10:50:00,71.0,56.4,30.03,WSW,249,10.0,18.0,60,0.00,,---,0.00,VWS V14.01,2013-03-16 15:50:00,
2013-03-16 10:55:00,70.8,55.8,30.03,WSW,253,9.0,18.0,59,0.00,,---,0.00,VWS V14.01,2013-03-16 15:55:00,
2013-03-16 11:00:00,70.8,56.2,30.03,SSW,203,11.0,21.0,60,0.00,,---,0.00,VWS V14.01,2013-03-16 16:00:00,
2013-03-16 11:05:00,70.7,55.7,30.03,WNW,288,5.0,21.0,59,0.00,,---,0.00,VWS V14.01,2013-03-16 16:05:00,
2013-03-16 11:10:00,71.1,56.1,30.03,WSW,243,9.0,21.0,59,0.00,,---,0.00,VWS V14.01,2013-03-16 16:10:00,
2013-03-16 11:15:00,71.5,55.0,30.04,West,261,6.0,21.0,56,0.00,,---,0.00,VWS V14.01,2013-03-16 16:15:00,
2013-03-16 11:20:00,71.7,56.2,30.04,SSW,204,5.0,21.0,58,0.00,,---,0.00,VWS V14.01,2013-03-16 16:20:00,
2013-03-16 11:25:00,71.8,55.8,30.04,WSW,258,13.0,21.0,57,0.00,,---,0.00,VWS V14.01,2013-03-16 16:25:00,
2013-03-16 11:30:00,71.6,56.1,30.03,SW,225,15.0,16.0,58,0.00,,---,0.00,VWS V14.01,2013-03-16 16:30:00,
2013-03-16 11:35:00,71.6,56.5,30.04,West,279,11.0,19.0,59,0.00,,---,0.00,VWS V14.01,2013-03-16 16:35:00,
2013-03-16 11:40:00,71.8,57.2,30.03,SSW,202,6.0,19.0,60,0.00,,---,0.00,VWS V14.01,2013-03-16 16:40:00,
2013-03-16 11:45:00,72.2,57.1,30.03,West,277,9.0,19.0,59,0.00,,---,0.00,VWS V14.01,2013-03-16 16:45:00,
2013-03-16 11:50:00,72.5,56.4,30.04,WSW,248,11.0,19.0,57,0.00,,---,0.00,VWS V14.01,2013-03-16 16:50:00,
2013-03-16 11:55:00,72.0,56.0,30.04,WSW,255,12.0,19.0,57,0.00,,---,0.00,VWS V14.01,2013-03-16 16:55:00,
2013-03-16 12:00:00,72.4,56.8,30.04,SW,216,7.0,16.0,58,0.00,,---,0.00,VWS V14.01,2013-03-16 17:00:00,
2013-03-16 12:05:00,72.3,56.7,30.03,WNW,284,12.0,23.0,58,0.00,,---,0.00,VWS V14.01,2013-03-16 17:05:00,
2013-03-16 12:10:00,72.0,56.0,30.03,NW,306,9.0,23.0,57,0.00,,---,0.00,VWS V14.01,2013-03-16 17:10:00,
2013-03-16 12:15:00,71.9,56.8,30.03,SSW,207,13.0,23.0,59,0.00,,---,0.00,VWS V14.01,2013-03-16 17:15:00,
2013-03-16 12:20:00,72.0,56.4,30.03,West,263,9.0,23.0,58,0.00,,---,0.00,VWS V14.01,2013-03-16 17:20:00,
2013-03-16 12:25:00,72.6,57.9,30.03,South,187,6.0,23.0,60,0.00,,---,0.00,VWS V14.01,2013-03-16 17:25:00,
2013-03-16 12:30:00,72.7,56.6,30.03,West,276,5.0,18.0,57,0.00,,---,0.00,VWS V14.01,2013-03-16 17:30:00,
2013-03-16 12:35:00,72.2,56.6,30.03,West,269,6.0,18.0,58,0.00,,---,0.00,VWS V14.01,2013-03-16 17:35:00,
2013-03-16 12:40:00,72.2,56.1,30.03,West,279,12.0,23.0,57,0.00,,---,0.00,VWS V14.01,2013-03-16 17:40:00,
2013-03-16 12:45:00,72.1,56.0,30.02,WSW,246,11.0,23.0,57,0.00,,---,0.00,VWS V14.01,2013-03-16 17:45:00,
2013-03-16 12:50:00,72.2,56.6,30.02,WSW,249,14.0,23.0,58,0.00,,---,0.00,VWS V14.01,2013-03-16 17:50:00,
2013-03-16 12:55:00,72.2,57.1,30.02,WSW,257,11.0,23.0,59,0.00,,---,0.00,VWS V14.01,2013-03-16 17:55:00,
2013-03-16 13:00:00,72.1,56.5,30.02,WSW,257,17.0,19.0,58,0.00,,---,0.00,VWS V14.01,2013-03-16 18:00:00,
2013-03-16 13:05:00,71.8,56.2,30.01,West,261,6.0,20.0,58,0.00,,---,0.00,VWS V14.01,2013-03-16 18:05:00,
2013-03-16 13:10:00,71.8,56.2,30.01,WSW,257,9.0,20.0,58,0.00,,---,0.00,VWS V14.01,2013-03-16 18:10:00,
2013-03-16 13:15:00,71.7,56.6,30.01,SSW,194,9.0,20.0,59,0.00,,---,0.00,VWS V14.01,2013-03-16 18:15:00,
2013-03-16 13:20:00,72.1,57.0,30.01,WSW,252,14.0,20.0,59,0.00,,---,0.00,VWS V14.01,2013-03-16 18:20:00,
2013-03-16 13:25:00,72.0,56.4,30.01,West,269,8.0,20.0,58,0.00,,---,0.00,VWS V14.01,2013-03-16 18:25:00,
2013-03-16 13:30:00,72.0,56.4,30.01,WSW,251,5.0,14.0,58,0.00,,---,0.00,VWS V14.01,2013-03-16 18:30:00,
2013-03-16 13:35:00,71.7,56.6,30.00,WNW,286,4.0,15.0,59,0.00,,---,0.00,VWS V14.01,2013-03-16 18:35:00,
2013-03-16 13:40:00,71.8,57.6,30.00,SSW,209,6.0,15.0,61,0.00,,---,0.00,VWS V14.01,2013-03-16 18:40:00,
2013-03-16 13:45:00,71.8,58.1,30.00,WSW,248,3.0,16.0,62,0.00,,---,0.00,VWS V14.01,2013-03-16 18:45:00,
2013-03-16 13:50:00,71.8,58.5,30.00,SSW,200,4.0,16.0,63,0.00,,---,0.00,VWS V14.01,2013-03-16 18:50:00,
2013-03-16 13:55:00,72.4,58.7,30.00,WSW,243,5.0,16.0,62,0.00,,---,0.00,VWS V14.01,2013-03-16 18:55:00,
2013-03-16 14:00:00,72.5,58.8,29.99,SSW,210,7.0,13.0,62,0.00,,---,0.00,VWS V14.01,2013-03-16 19:00:00,
2013-03-16 14:05:00,72.2,57.6,29.99,SSW,213,9.0,19.0,60,0.00,,---,0.00,VWS V14.01,2013-03-16 19:05:00,
2013-03-16 14:10:00,72.3,58.1,29.98,SW,232,6.0,24.0,61,0.00,,---,0.00,VWS V14.01,2013-03-16 19:10:00,
2013-03-16 14:15:00,72.8,58.6,29.98,South,183,6.0,24.0,61,0.00,,---,0.00,VWS V14.01,2013-03-16 19:15:00,
2013-03-16 14:20:00,72.9,58.7,29.98,SW,217,6.0,24.0,61,0.00,,---,0.00,VWS V14.01,2013-03-16 19:20:00,
2013-03-16 14:25:00,72.5,58.3,29.98,West,281,0.0,24.0,61,0.00,,---,0.00,VWS V14.01,2013-03-16 19:25:00,
2013-03-16 14:30:00,72.5,59.2,29.97,South,169,8.0,12.0,63,0.00,,---,0.00,VWS V14.01,2013-03-16 19:30:00,
2013-03-16 14:35:00,72.8,58.6,29.97,West,265,10.0,12.0,61,0.00,,---,0.00,VWS V14.01,2013-03-16 19:35:00,
2013-03-16 14:40:00,72.4,58.7,29.97,South,184,11.0,18.0,62,0.00,,---,0.00,VWS V14.01,2013-03-16 19:40:00,
2013-03-16 14:45:00,71.9,58.2,29.97,SSW,202,10.0,18.0,62,0.00,,---,0.00,VWS V14.01,2013-03-16 19:45:00,
2013-03-16 14:50:00,71.7,58.5,29.97,SW,230,5.0,18.0,63,0.00,,---,0.00,VWS V14.01,2013-03-16 19:50:00,
2013-03-16 14:55:00,71.4,57.7,29.96,South,174,6.0,18.0,62,0.00,,---,0.00,VWS V14.01,2013-03-16 19:55:00,
2013-03-16 15:00:00,71.5,58.3,29.96,SW,218,4.0,5.0,63,0.00,,---,0.00,VWS V14.01,2013-03-16 20:00:00,
2013-03-16 15:05:00,71.9,59.1,29.96,WSW,237,6.0,16.0,64,0.00,,---,0.00,VWS V14.01,2013-03-16 20:05:00,
2013-03-16 15:10:00,72.2,58.9,29.96,South,187,12.0,16.0,63,0.00,,---,0.00,VWS V14.01,2013-03-16 20:10:00,
2013-03-16 15:15:00,72.2,58.5,29.95,SSW,196,7.0,16.0,62,0.00,,---,0.00,VWS V14.01,2013-03-16 20:15:00,
2013-03-16 15:20:00,72.4,58.7,29.96,SSW,196,6.0,16.0,62,0.00,,---,0.00,VWS V14.01,2013-03-16 20:20:00,
2013-03-16 15:25:00,72.2,59.4,29.95,SW,215,11.0,16.0,64,0.00,,---,0.00,VWS V14.01,2013-03-16 20:25:00,
2013-03-16 15:30:00,71.9,60.4,29.95,SSW,213,5.0,7.0,67,0.00,,---,0.00,VWS V14.01,2013-03-16 20:30:00,
2013-03-16 15:35:00,71.9,59.9,29.95,South,188,11.0,11.0,66,0.00,,---,0.00,VWS V14.01,2013-03-16 20:35:00,
2013-03-16 15:40:00,71.5,59.1,29.95,WSW,252,10.0,14.0,65,0.00,,---,0.00,VWS V14.01,2013-03-16 20:40:00,
2013-03-16 15:45:00,71.3,59.8,29.95,South,186,6.0,15.0,67,0.00,,---,0.00,VWS V14.01,2013-03-16 20:45:00,
2013-03-16 15:50:00,71.1,60.0,29.95,WSW,239,4.0,17.0,68,0.00,,---,0.00,VWS V14.01,2013-03-16 20:50:00,
2013-03-16 15:55:00,71.1,59.2,29.95,SSW,200,5.0,17.0,66,0.00,,---,0.00,VWS V14.01,2013-03-16 20:55:00,
2013-03-16 16:00:00,71.1,59.6,29.94,SW,215,2.0,9.0,67,0.00,,---,0.00,VWS V14.01,2013-03-16 21:00:00,
2013-03-16 16:05:00,71.2,60.5,29.94,SSW,205,6.0,12.0,69,0.00,,---,0.00,VWS V14.01,2013-03-16 21:05:00,
2013-03-16 16:10:00,70.8,60.1,29.94,South,182,2.0,15.0,69,0.00,,---,0.00,VWS V14.01,2013-03-16 21:10:00,
2013-03-16 16:15:00,70.7,60.0,29.94,SSW,206,5.0,15.0,69,0.00,,---,0.00,VWS V14.01,2013-03-16 21:15:00,
2013-03-16 16:20:00,70.7,60.5,29.94,SSW,196,4.0,16.0,70,0.00,,---,0.00,VWS V14.01,2013-03-16 21:20:00,
2013-03-16 16:25:00,71.0,59.9,29.94,SW,223,6.0,16.0,68,0.00,,---,0.00,VWS V14.01,2013-03-16 21:25:00,
2013-03-16 16:30:00,70.5,59.8,29.94,South,182,6.0,10.0,69,0.00,,---,0.00,VWS V14.01,2013-03-16 21:30:00,
2013-03-16 16:35:00,70.2,60.0,29.94,SSW,199,6.0,13.0,70,0.00,,---,0.00,VWS V14.01,2013-03-16 21:35:00,
2013-03-16 16:40:00,70.0,59.4,29.93,South,181,9.0,14.0,69,0.00,,---,0.00,VWS V14.01,2013-03-16 21:40:00,
2013-03-16 16:45:00,70.2,59.6,29.93,SSW,207,6.0,14.0,69,0.00,,---,0.00,VWS V14.01,2013-03-16 21:45:00,
2013-03-16 16:50:00,70.3,60.1,29.93,SW,234,4.0,14.0,70,0.00,,---,0.00,VWS V14.01,2013-03-16 21:50:00,
2013-03-16 16:55:00,70.3,60.5,29.93,SW,214,2.0,14.0,71,0.00,,---,0.00,VWS V14.01,2013-03-16 21:55:00,
2013-03-16 17:00:00,70.2,60.4,29.93,SSW,212,5.0,12.0,71,0.00,,---,0.00,VWS V14.01,2013-03-16 22:00:00,
2013-03-16 17:05:00,70.1,59.9,29.93,SW,217,1.0,12.0,70,0.00,,---,0.00,VWS V14.01,2013-03-16 22:05:00,
2013-03-16 17:10:00,70.1,60.3,29.93,South,190,3.0,12.0,71,0.00,,---,0.00,VWS V14.01,2013-03-16 22:10:00,
2013-03-16 17:15:00,69.9,60.5,29.93,SW,225,2.0,12.0,72,0.00,,---,0.00,VWS V14.01,2013-03-16 22:15:00,
2013-03-16 17:20:00,69.6,60.2,29.93,South,191,5.0,12.0,72,0.00,,---,0.00,VWS V14.01,2013-03-16 22:20:00,
2013-03-16 17:25:00,69.3,59.9,29.93,South,183,3.0,12.0,72,0.00,,---,0.00,VWS V14.01,2013-03-16 22:25:00,
2013-03-16 17:30:00,68.9,59.9,29.93,SSW,206,5.0,5.0,73,0.00,,---,0.00,VWS V14.01,2013-03-16 22:30:00,
2013-03-16 17:35:00,68.7,59.7,29.93,SSW,203,0.0,7.0,73,0.00,,---,0.00,VWS V14.01,2013-03-16 22:35:00,
2013-03-16 17:40:00,68.7,59.7,29.93,SSW,205,5.0,7.0,73,0.00,,---,0.00,VWS V14.01,2013-03-16 22:40:00,
2013-03-16 17:45:00,68.5,59.5,29.93,SW,215,7.0,8.0,73,0.00,,---,0.00,VWS V14.01,2013-03-16 22:45:00,
2013-03-16 17:50:00,68.3,59.7,29.92,South,176,2.0,8.0,74,0.00,,---,0.00,VWS V14.01,2013-03-16 22:50:00,
2013-03-16 17:55:00,68.1,59.5,29.93,SSW,204,5.0,9.0,74,0.00,,---,0.00,VWS V14.01,2013-03-16 22:55:00,
2013-03-16 18:00:00,67.7,59.1,29.93,SSW,202,4.0,5.0,74,0.00,,---,0.00,VWS V14.01,2013-03-16 23:00:00,
2013-03-16 18:05:00,67.5,58.9,29.93,SSW,195,1.0,11.0,74,0.00,,---,0.00,VWS V14.01,2013-03-16 23:05:00,
2013-03-16 18:10:00,67.4,59.2,29.92,SSW,200,6.0,11.0,75,0.00,,---,0.00,VWS V14.01,2013-03-16 23:10:00,
2013-03-16 18:15:00,67.3,59.1,29.93,SSW,204,0.0,11.0,75,0.00,,---,0.00,VWS V14.01,2013-03-16 23:15:00,
2013-03-16 18:20:00,67.1,59.3,29.93,SSW,212,0.0,11.0,76,0.00,,---,0.00,VWS V14.01,2013-03-16 23:20:00,
2013-03-16 18:25:00,67.0,59.2,29.93,South,170,3.0,11.0,76,0.00,,---,0.00,VWS V14.01,2013-03-16 23:25:00,
2013-03-16 18:30:00,66.7,59.3,29.93,SSW,212,0.0,2.0,77,0.00,,---,0.00,VWS V14.01,2013-03-16 23:30:00,
2013-03-16 18:35:00,66.4,59.0,29.93,SW,214,4.0,5.0,77,0.00,,---,0.00,VWS V14.01,2013-03-16 23:35:00,
2013-03-16 18:40:00,66.1,59.0,29.93,SSW,211,0.0,6.0,78,0.00,,---,0.00,VWS V14.01,2013-03-16 23:40:00,
2013-03-16 18:45:00,65.8,59.1,29.93,SSW,209,2.0,6.0,79,0.00,,---,0.00,VWS V14.01,2013-03-16 23:45:00,
2013-03-16 18:50:00,65.5,59.2,29.93,SSW,209,0.0,6.0,80,0.00,,---,0.00,VWS V14.01,2013-03-16 23:50:00,
2013-03-16 18:55:00,65.2,58.9,29.93,SSW,209,0.0,6.0,80,0.00,,---,0.00,VWS V14.01,2013-03-16 23:55:00,
2013-03-16 19:00:00,64.8,58.8,29.93,SSW,209,0.0,0.0,81,0.00,,---,0.00,VWS V14.01,2013-03-17 00:00:00,
2013-03-16 19:05:00,64.4,58.5,29.93,SSW,209,3.0,3.0,81,0.00,,---,0.00,VWS V14.01,2013-03-17 00:05:00,
2013-03-16 19:10:00,64.1,58.5,29.93,SSW,209,0.0,3.0,82,0.00,,---,0.00,VWS V14.01,2013-03-17 00:10:00,
2013-03-16 19:15:00,63.7,58.5,29.93,SSW,209,0.0,3.0,83,0.00,,---,0.00,VWS V14.01,2013-03-17 00:15:00,
2013-03-16 19:20:00,63.4,58.2,29.93,SSW,209,0.0,3.0,83,0.00,,---,0.00,VWS V14.01,2013-03-17 00:20:00,
2013-03-16 19:25:00,63.1,58.2,29.93,SSW,209,0.0,3.0,84,0.00,,---,0.00,VWS V14.01,2013-03-17 00:25:00,
2013-03-16 19:30:00,62.7,57.8,29.93,SSW,209,0.0,2.0,84,0.00,,---,0.00,VWS V14.01,2013-03-17 00:30:00,
2013-03-16 19:35:00,62.4,57.8,29.93,SSW,209,0.0,2.0,85,0.00,,---,0.00,VWS V14.01,2013-03-17 00:35:00,
2013-03-16 19:40:00,62.0,57.8,29.93,SSW,209,0.0,2.0,86,0.00,,---,0.00,VWS V14.01,2013-03-17 00:40:00,
2013-03-16 19:45:00,61.7,57.5,29.92,SSW,209,1.0,2.0,86,0.00,,---,0.00,VWS V14.01,2013-03-17 00:45:00,
2013-03-16 19:50:00,61.5,57.6,29.92,SSW,209,0.0,2.0,87,0.00,,---,0.00,VWS V14.01,2013-03-17 00:50:00,
2013-03-16 19:55:00,61.3,57.4,29.92,SSW,209,0.0,2.0,87,0.00,,---,0.00,VWS V14.01,2013-03-17 00:55:00,
2013-03-16 20:00:00,61.0,57.4,29.92,SSW,209,0.0,0.0,88,0.00,,---,0.00,VWS V14.01,2013-03-17 01:00:00,
2013-03-16 20:05:00,60.8,57.2,29.93,SSW,209,0.0,0.0,88,0.00,,---,0.00,VWS V14.01,2013-03-17 01:05:00,
2013-03-16 20:10:00,60.6,57.0,29.93,SSW,209,0.0,0.0,88,0.00,,---,0.00,VWS V14.01,2013-03-17 01:10:00,
2013-03-16 20:15:00,60.4,56.8,29.93,SSW,209,0.0,0.0,88,0.00,,---,0.00,VWS V14.01,2013-03-17 01:15:00,
2013-03-16 20:20:00,60.2,56.6,29.93,SSW,209,0.0,0.0,88,0.00,,---,0.00,VWS V14.01,2013-03-17 01:20:00,
2013-03-16 20:25:00,59.9,56.7,29.93,SSW,209,0.0,0.0,89,0.00,,---,0.00,VWS V14.01,2013-03-17 01:25:00,
2013-03-16 20:30:00,59.8,56.6,29.93,SSW,209,0.0,0.0,89,0.00,,---,0.00,VWS V14.01,2013-03-17 01:30:00,
2013-03-16 20:35:00,59.6,56.4,29.94,SSW,209,0.0,0.0,89,0.00,,---,0.00,VWS V14.01,2013-03-17 01:35:00,
2013-03-16 20:40:00,59.4,56.2,29.94,SSW,209,0.0,0.0,89,0.00,,---,0.00,VWS V14.01,2013-03-17 01:40:00,
2013-03-16 20:45:00,59.1,56.2,29.94,SSW,209,0.0,0.0,90,0.00,,---,0.00,VWS V14.01,2013-03-17 01:45:00,
2013-03-16 20:50:00,58.9,56.0,29.94,SSW,209,0.0,0.0,90,0.00,,---,0.00,VWS V14.01,2013-03-17 01:50:00,
2013-03-16 20:55:00,58.8,55.9,29.94,SSW,209,0.0,0.0,90,0.00,,---,0.00,VWS V14.01,2013-03-17 01:55:00,
2013-03-16 21:00:00,58.8,56.2,29.94,SSW,209,0.0,0.0,91,0.00,,---,0.00,VWS V14.01,2013-03-17 02:00:00,
2013-03-16 21:05:00,58.9,56.6,29.94,SSW,209,0.0,2.0,92,0.00,,---,0.00,VWS V14.01,2013-03-17 02:05:00,
2013-03-16 21:10:00,58.9,56.6,29.94,SSW,209,0.0,2.0,92,0.00,,---,0.00,VWS V14.01,2013-03-17 02:10:00,
2013-03-16 21:15:00,59.0,56.7,29.94,SSW,209,0.0,2.0,92,0.00,,---,0.00,VWS V14.01,2013-03-17 02:15:00,
2013-03-16 21:20:00,59.0,56.7,29.94,SSW,209,0.0,2.0,92,0.00,,---,0.00,VWS V14.01,2013-03-17 02:20:00,
2013-03-16 21:25:00,59.0,56.7,29.94,SSW,209,0.0,2.0,92,0.00,,---,0.00,VWS V14.01,2013-03-17 02:25:00,
2013-03-16 21:30:00,58.9,56.6,29.94,SSW,209,0.0,0.0,92,0.00,,---,0.00,VWS V14.01,2013-03-17 02:30:00,
2013-03-16 21:35:00,58.7,56.4,29.94,SSW,209,0.0,0.0,92,0.00,,---,0.00,VWS V14.01,2013-03-17 02:35:00,
2013-03-16 21:40:00,58.6,56.3,29.94,SSW,209,0.0,0.0,92,0.00,,---,0.00,VWS V14.01,2013-03-17 02:40:00,
2013-03-16 21:45:00,58.6,56.3,29.95,SSW,209,0.0,0.0,92,0.00,,---,0.00,VWS V14.01,2013-03-17 02:45:00,
2013-03-16 21:50:00,58.4,56.1,29.95,SSW,209,0.0,0.0,92,0.00,,---,0.00,VWS V14.01,2013-03-17 02:50:00,
2013-03-16 21:55:00,58.3,56.0,29.95,SSW,209,0.0,0.0,92,0.00,,---,0.00,VWS V14.01,2013-03-17 02:55:00,
2013-03-16 22:00:00,58.2,55.9,29.95,SSW,209,0.0,0.0,92,0.00,,---,0.00,VWS V14.01,2013-03-17 03:00:00,
2013-03-16 22:05:00,58.1,55.8,29.95,SSW,209,0.0,1.0,92,0.00,,---,0.00,VWS V14.01,2013-03-17 03:05:00,
2013-03-16 22:10:00,58.0,55.7,29.95,SSW,209,0.0,1.0,92,0.00,,---,0.00,VWS V14.01,2013-03-17 03:10:00,
2013-03-16 22:15:00,58.0,56.0,29.95,SSW,209,0.0,1.0,93,0.00,,---,0.00,VWS V14.01,2013-03-17 03:15:00,
2013-03-16 22:20:00,57.8,55.8,29.95,SSW,209,0.0,1.0,93,0.00,,---,0.00,VWS V14.01,2013-03-17 03:20:00,
2013-03-16 22:25:00,57.7,55.7,29.95,SSW,209,0.0,1.0,93,0.00,,---,0.00,VWS V14.01,2013-03-17 03:25:00,
2013-03-16 22:30:00,57.8,55.8,29.95,SSW,209,0.0,1.0,93,0.00,,---,0.00,VWS V14.01,2013-03-17 03:30:00,
2013-03-16 22:35:00,57.8,55.8,29.95,SSW,209,0.0,1.0,93,0.00,,---,0.00,VWS V14.01,2013-03-17 03:35:00,
2013-03-16 22:40:00,57.9,55.9,29.95,SSW,209,0.0,1.0,93,0.00,,---,0.00,VWS V14.01,2013-03-17 03:40:00,
2013-03-16 22:45:00,58.0,56.3,29.95,SSW,209,0.0,1.0,94,0.00,,---,0.00,VWS V14.01,2013-03-17 03:45:00,
2013-03-16 22:50:00,58.0,56.3,29.95,SSW,209,0.0,3.0,94,0.00,,---,0.00,VWS V14.01,2013-03-17 03:50:00,
2013-03-16 22:55:00,58.2,56.5,29.95,SSW,209,0.0,3.0,94,0.00,,---,0.00,VWS V14.01,2013-03-17 03:55:00,
2013-03-16 23:00:00,58.2,56.5,29.95,SSW,209,0.0,0.0,94,0.00,,---,0.00,VWS V14.01,2013-03-17 04:00:00,
2013-03-16 23:05:00,58.4,56.7,29.95,SSW,209,0.0,0.0,94,0.00,,---,0.00,VWS V14.01,2013-03-17 04:05:00,
2013-03-16 23:10:00,58.5,56.8,29.95,SSW,209,0.0,0.0,94,0.00,,---,0.00,VWS V14.01,2013-03-17 04:10:00,
2013-03-16 23:15:00,58.7,57.0,29.95,SSW,209,0.0,1.0,94,0.00,,---,0.00,VWS V14.01,2013-03-17 04:15:00,
2013-03-16 23:20:00,59.0,57.6,29.95,SSW,209,0.0,3.0,95,0.00,,---,0.00,VWS V14.01,2013-03-17 04:20:00,
2013-03-16 23:25:00,59.0,57.3,29.95,SSW,209,0.0,3.0,94,0.00,,---,0.00,VWS V14.01,2013-03-17 04:25:00,
2013-03-16 23:30:00,59.0,57.3,29.95,SSW,209,0.0,0.0,94,0.00,,---,0.00,VWS V14.01,2013-03-17 04:30:00,
2013-03-16 23:35:00,59.1,57.4,29.94,SSW,209,0.0,0.0,94,0.00,,---,0.00,VWS V14.01,2013-03-17 04:35:00,
2013-03-16 23:40:00,59.2,57.5,29.94,SSW,209,0.0,3.0,94,0.00,,---,0.00,VWS V14.01,2013-03-17 04:40:00,
2013-03-16 23:45:00,59.2,57.5,29.94,SSW,209,0.0,3.0,94,0.00,,---,0.00,VWS V14.01,2013-03-17 04:45:00,
2013-03-16 23:50:00,59.3,57.6,29.94,SSW,209,0.0,3.0,94,0.00,,---,0.00,VWS V14.01,2013-03-17 04:50:00,
2013-03-16 23:55:00,59.2,57.5,29.94,SSW,209,0.0,3.0,94,0.00,,---,0.00,VWS V14.01,2013-03-17 04:55:00,